Regional Weather Roundup
Issued by NWS

Home | Current Version | Previous Version | Text Only | Print | Product List | Glossary Off
Versions: 1 2 3 4 5 6 7 8 9 10 11 12 13 14 15 16 17 18 19 20 21 22 23 24 25 26 27 28 29 30 31 32 33 34 35 36 37 38 39 40 41 42 43 44 45 46 47 48 49 50

000
ASUS43 KIND 210809
RWRIN

WEATHER ROUNDUP FOR INDIANA
NATIONAL WEATHER SERVICE INDIANAPOLIS IN
400 AM EDT MON AUG 21 2017

NOTE: "FAIR" INDICATES FEW OR NO CLOUDS BELOW 12,000 FEET WITH NO
SIGNIFICANT WEATHER AND/OR OBSTRUCTIONS TO VISIBILITY.

* - STATION DOES NOT REPORT WEATHER SUCH AS PRECIPITATION OR FOG.

+ - STATION NOT QUALITY CONTROLLED BY THE NATIONAL WEATHER SERVICE.
    USE DATA WITH CAUTION...ESPECIALLY DEWPOINT AND RELATIVE
    HUMIDITY OBSERVATIONS.

INZ001>003-010>013-019-020-210900-
NORTHWEST INDIANA

CITY           SKY/WX    TMP DP  RH WIND       PRES   REMARKS
GARY /AIRPORT/ CLOUDY    71  68  91 CALM      30.06S
KNOX *+        CLOUDY    70  66  88 SE6       30.05F
LA PORTE +     CLOUDY    71  67  89 CALM      30.07F
MICHIGAN CITY+ CLOUDY    72  64  78 S3        30.06F
MONTICELLO +   RAIN      70  68  95 N12G22    30.11R
RENSSELAER +   CLOUDY    70  63  78 SE12      30.08S
VALPARAISO     CLOUDY    73  69  87 S7        30.06F

$$

LMZ046-743>745-210900-
SOUTHERN LAKE MICHIGAN

STATION/POSITION TIME  TEMP    WIND        PRES    WAVE
                       AIR SEA DIR/SP/G            HT
                 (UTC) (F)     (DEG/KT/KT) (MB)    (FT)
BURNS HARBOR     0740   75     200/  6/ 12 1017.9F
MICHIGAN CITY    0740   74     170/ 10/ 12   N/A
5NW MICH CITY    0800   75 75  190/ 10/ 12   N/A     1

$$

INZ004-005-014>016-021>024-210900-
NORTH CENTRAL INDIANA

CITY           SKY/WX    TMP DP  RH WIND       PRES   REMARKS
GOSHEN         CLOUDY    73  65  75 SE7       30.07F
LOGANSPORT +   CLOUDY    70  66  88 SW6       30.11R
PERU/GRISSOM   LGT RAIN  68  64  88 S8        30.08S
ROCHESTER +    CLOUDY    73  70  88 CALM      30.08R
SOUTH BEND     CLOUDY    74  67  78 CALM      30.06F
WARSAW +       DRIZZLE   70  68  94 CALM      30.07F

$$

INZ006>009-017-018-025>027-210900-
NORTHEAST INDIANA

CITY           SKY/WX    TMP DP  RH WIND       PRES   REMARKS
AUBURN +       CLOUDY    68  66  94 CALM      30.10F
FORT WAYNE     CLOUDY    70  65  84 CALM      30.09F
HUNTINGTON +   CLOUDY    69  67  91 CALM      30.09F THUNDER

$$

INZ028-029-035-036-043>045-051>053-210900-
WEST CENTRAL INDIANA

CITY           SKY/WX    TMP DP  RH WIND       PRES   REMARKS
GREENCASTLE +  CLEAR     68  66  94 CALM      30.11R
LAFAYETTE      TSTM      68  68 100 W5        30.08R
TERRE HAUTE    CLEAR     71  68  90 CALM      30.08F

$$

INZ030>032-037>040-046>048-054>057-064-065-210900-
CENTRAL INDIANA

CITY           SKY/WX    TMP DP  RH WIND       PRES   REMARKS
CP ATTERBURY + CLEAR     68  66  94 CALM      30.12R
FRANKFORT +    MOCLDY    73  66  79 CALM      30.11F
GREENWOOD *+   PTCLDY    73  68  85 CALM      30.11S
INDIANAPOLIS   PTCLDY    73  69  87 SW5       30.09S
-EAGLE CREEK   CLEAR     75  68  78 S3        30.10S
KOKOMO +       TSTM      69  63  81 VRB5      30.12R
MARION +       LGT RAIN  70  66  88 SW6       30.12F
MT COMFORT *+  PTCLDY    70  68  94 CALM      30.11S
SHELBYVILLE    CLEAR     72  67  84 S5        30.10S
ZIONSVILLE +   CLOUDY    71  65  84 N5        30.12S

$$

INZ033-034-041-042-049-050-058-059-210900-
EAST CENTRAL INDIANA

CITY           SKY/WX    TMP DP  RH WIND       PRES   REMARKS
MUNCIE         CLOUDY    77  67  71 SW5       30.11F
RICHMOND +     PTCLDY    66  64  94 S5        30.14S FOG

$$

INZ060-061-067>069-081>083-085>088-210900-
SOUTHWEST INDIANA

CITY           SKY/WX    TMP DP  RH WIND       PRES   REMARKS
EVANSVILLE     CLOUDY    71  68  90 CALM      30.10F
HUNTINGBURG +  MOCLDY    71  69  93 SE5       30.11F
WASHINGTON +   PTCLDY    71  68  92 MISG      30.08F

$$

INZ062-063-066-070>080-084-089>092-210900-
SOUTH CENTRAL AND SOUTHEAST INDIANA

CITY           SKY/WX    TMP DP  RH WIND       PRES   REMARKS
BEDFORD +      CLEAR     72  68  88 S3        30.11F
BLOOMINGTON    CLEAR     73  66  78 SW5       30.11S
MADISON *+     CLEAR     70  68  94 CALM      30.15S
NORTH VERNON + CLEAR     68  66  94 CALM      30.13S
SEYMOUR +      CLEAR     70  68  94 SE5       30.11F

$$





USA.gov is the U.S. government's official web portal to all federal, state and local government web resources and services.